Location: Braden Valley Church
(38.0012°N, 88.6106°W)
Time: 03:29:48
(UTC+00:00)

Cosmos 1833 Rocket - Pass Details

Date: 08 December 2021
Orbit: 831 x 841 km, 71.0° (Epoch: 21 January)

Event Time Altitude Azimuth Distance (km) Brightness Sun altitude
Rises 22:59:02 0° 231° (SW) 3,365 7.8 -5.1°
Reaches altitude 10° 23:01:47 10° 242° (WSW) 2,437 7.0 -5.6°
Maximum altitude 23:06:34 29° 302° (WNW) 1,499 4.4 -6.4°
Drops below altitude 10° 23:11:24 10° 1° (N) 2,455 4.9 -7.3°
Sets 23:14:12 0° 13° (NNE) 3,395 5.5 -7.8°
